View from above orbital plane
|
View from above satellite
|
Ground track
|
The orbit data is extracted from the following two-line orbital elements,
1 31598U 07023A 21020.18659424 -.00000360 00000-0 -38694-4 0 9997
2 31598 97.8836 206.1973 0001468 90.3224 269.8137 14.82154692736932
Epoch (UTC): | 20 January 2021 04:28:41 |
Eccentricity: | 0.0001468 |
inclination: | 97.8836° |
perigee height: | 621 km |
apogee height: | 623 km |
right ascension of ascending node: | 206.1973° |
argument of perigee: | 90.3224° |
revolutions per day: | 14.82154692 |
mean anomaly at epoch: | 269.8137° |
orbit number at epoch: | 73693 |
The dashed part of the orbit path shows where the satellite is in the earth's shadow,
|
|